1491105600.81,22158,12.88,73756.5,-2.77,-33.43,-33.67,0,*58
1491105602.07,22159,12.88,73758.8,-2.77,-33.43,-33.67,0,*59
1491105603.32,22160,12.88,73758.0,-2.77,-33.27,-33.67,0,*51
1491105604.58,22161,12.88,73760.3,-2.77,-33.09,-33.37,0,*59
1491105605.87,22162,12.88,73758.5,-2.77,-33.09,-33.27,0,*5B
1491105607.13,22163,12.88,73756.3,-2.77,-33.03,-33.09,0,*5C
1491105608.41,22164,12.88,73762.5,-2.77,-33.27,-33.43,0,*53
1491105609.63,22165,12.88,73762.3,-2.79,-33.21,-33.67,0,*5C
1491105610.91,22166,12.88,73756.3,-2.77,-33.09,-33.43,0,*5D
1491105612.2,22167,12.88,73756.8,-2.77,-33.27,-33.43,0,*50
1491105613.49,22168,12.88,73754.5,-2.77,-33.09,-33.27,0,*51
1491105614.75,22169,12.88,73758.5,-2.75,-32.85,-33.03,0,*51
1491105615.98,22170,12.88,73754.8,-2.77,-33.03,-33.21,0,*54
1491105617.25,22171,12.88,73756.3,-2.79,-33.09,-33.43,0,*55
1491105618.51,22172,12.88,73752.8,-2.77,-33.21,-33.43,0,*52
1491105619.77,22173,12.88,73752.5,-2.77,-33.09,-33.37,0,*5A
1491105621.05,22174,12.88,73754.8,-2.77,-33.43,-33.77,0,*57
1491105622.31,22175,12.88,73752.0,-2.77,-33.27,-33.37,0,*50
1491105623.54,22176,12.88,73750.5,-2.77,-33.03,-33.21,0,*52
1491105624.78,22177,12.88,73750.3,-2.77,-33.21,-33.37,0,*54
1491105626.07,22178,12.88,73748.0,-2.77,-33.09,-33.27,0,*50
1491105627.35,22179,12.88,73750.5,-2.77,-33.09,-33.27,0,*51
1491105628.61,22180,12.88,73744.0,-2.77,-32.91,-33.09,0,*5B
1491105629.87,22181,12.88,73748.5,-2.77,-33.03,-33.09,0,*50
1491105631.1,22182,12.88,73748.0,-2.79,-32.75,-32.91,0,*5D
1491105632.34,22183,12.88,73748.5,-2.79,-32.85,-33.03,0,*59
1491105633.61,22184,12.88,73744.3,-2.77,-32.69,-32.75,0,*52
1491105634.9,22185,12.88,73742.0,-2.75,-32.63,-32.63,0,*5C
1491105636.15,22186,12.88,73748.3,-2.75,-32.35,-32.45,0,*58
1491105637.44,22187,12.88,73748.5,-2.75,-32.85,-32.97,0,*5D
1491105638.7,22188,12.88,73754.0,-2.75,-32.51,-32.63,0,*50
1491105639.96,22189,12.88,73748.8,-2.75,-32.51,-32.63,0,*51
1491105641.22,22190,12.88,73748.0,-2.73,-32.85,-32.85,0,*5E
1491105642.45,22191,12.88,73748.8,-2.73,-32.97,-33.03,0,*53
1491105643.66,22192,12.88,73750.5,-2.73,-33.03,-33.15,0,*5B
1491105644.89,22193,12.88,73748.8,-2.69,-32.91,-32.97,0,*50
1491105646.09,22194,12.88,73744.5,-2.73,-33.15,-33.21,0,*5D
1491105647.35,22195,12.88,73744.0,-2.73,-33.31,-33.49,0,*54
1491105648.56,22196,12.88,73744.0,-2.73,-33.21,-33.37,0,*5F
1491105649.77,22197,12.88,73750.0,-2.73,-33.03,-33.21,0,*59
1491105651.0,22198,12.88,73744.8,-2.73,-33.15,-33.31,0,*50
1491105652.23,22199,12.88,73750.8,-2.73,-33.03,-33.31,0,*56
1491105653.47,22200,12.88,73748.3,-2.73,-33.03,-33.31,0,*55
1491105654.73,22201,12.88,73748.0,-2.69,-33.27,-33.43,0,*5C
1491105655.99,22202,12.88,73746.3,-2.73,-33.31,-33.61,0,*53
1491105657.22,22203,12.88,73746.0,-2.73,-33.21,-33.31,0,*56
1491105658.48,22204,12.88,73748.0,-2.73,-33.31,-33.49,0,*5F
1491105659.72,22205,12.88,73744.8,-2.69,-33.15,-33.43,0,*59
1491105660.95,22206,12.88,73744.8,-2.73,-33.37,-33.61,0,*51
1491105662.16,22207,12.88,73748.3,-2.73,-33.21,-33.37,0,*54
1491105663.41,22208,12.88,73746.5,-2.73,-33.31,-33.61,0,*59
1491105664.64,22209,12.88,73750.8,-2.73,-33.21,-33.61,0,*59
1491105665.9,22210,12.88,73744.8,-2.73,-33.31,-33.61,0,*50
1491105667.13,22211,12.88,73744.5,-2.73,-33.21,-33.61,0,*50
1491105668.39,22212,12.88,73740.0,-2.69,-33.09,-33.27,0,*50
1491105669.63,22213,12.88,73748.3,-2.73,-32.97,-33.21,0,*5A
1491105670.85,22214,12.88,73748.0,-2.73,-32.97,-33.21,0,*5D
1491105672.07,22215,12.88,73744.0,-2.69,-33.03,-33.15,0,*5C
1491105673.27,22216,12.88,73744.0,-2.73,-33.03,-33.21,0,*53
1491105674.49,22217,12.88,73746.5,-2.73,-33.21,-33.37,0,*55
1491105675.72,22218,12.88,73746.5,-2.69,-32.91,-32.97,0,*50
1491105676.98,22219,12.88,73748.8,-2.69,-33.09,-33.31,0,*5C
1491105678.19,22220,12.88,73744.5,-2.69,-32.91,-33.15,0,*50
1491105679.48,22221,12.88,73754.5,-2.67,-32.75,-32.97,0,*5E
1491105680.74,22222,12.88,73748.8,-2.67,-32.91,-33.27,0,*5D
1491105681.99,22223,12.88,73746.0,-2.67,-33.15,-33.43,0,*53
1491105683.25,22224,12.88,73754.5,-2.67,-33.27,-33.55,0,*52
1491105684.51,22225,12.88,73754.0,-2.67,-33.15,-33.43,0,*55
1491105685.74,22226,12.88,73754.5,-2.67,-33.15,-33.67,0,*50
1491105687.0,22227,12.88,73758.5,-2.69,-33.43,-33.73,0,*59
1491105688.24,22228,12.88,73762.0,-2.69,-33.27,-33.67,0,*51
1491105689.53,22229,12.88,73752.8,-2.67,-32.97,-33.31,0,*57
1491105690.81,22230,12.88,73754.0,-2.67,-32.97,-33.27,0,*58
1491105692.07,22231,12.88,73754.3,-2.67,-32.91,-33.09,0,*53
1491105693.33,22232,12.88,73758.5,-2.67,-32.91,-33.27,0,*5C
1491105694.62,22233,12.88,73758.3,-2.67,-33.09,-33.43,0,*5F
1491105695.9,22234,12.88,73760.0,-2.67,-32.97,-33.27,0,*5C
1491105697.16,22235,12.88,73754.3,-2.69,-32.75,-32.97,0,*55
1491105698.44,22236,12.88,73748.0,-2.67,-32.63,-32.97,0,*5F
1491105699.7,22237,12.88,73752.0,-2.65,-32.85,-33.09,0,*52
1491105700.96,22238,12.88,73760.0,-2.67,-33.27,-33.55,0,*5F
1491105702.21,22239,12.88,73756.3,-2.67,-33.27,-33.55,0,*5E
1491105703.45,22240,12.88,73756.5,-2.65,-33.09,-33.37,0,*5A
1491105704.68,22241,12.88,73756.8,-2.65,-33.09,-33.55,0,*5F
1491105705.94,22242,12.88,73762.3,-2.65,-33.09,-33.49,0,*51
1491105707.17,22243,12.88,73762.0,-2.67,-33.15,-33.55,0,*52
1491105708.37,22244,12.88,73760.5,-2.65,-32.91,-33.21,0,*59
1491105709.6,22245,12.88,73760.5,-2.65,-32.91,-33.31,0,*59
1491105710.8,22246,12.88,73760.3,-2.65,-32.91,-33.21,0,*5B
1491105712.04,22247,12.88,73760.3,-2.65,-32.91,-33.27,0,*5C
1491105713.24,22248,12.88,73754.0,-2.65,-33.03,-33.37,0,*58
1491105714.48,22249,12.88,73756.5,-2.65,-33.03,-33.27,0,*58
1491105715.74,22250,12.88,73756.3,-2.67,-33.43,-33.67,0,*52
1491105717.0,22251,12.88,73766.0,-2.67,-33.43,-33.67,0,*53
1491105718.21,22252,12.88,73762.8,-2.65,-33.37,-33.67,0,*51
1491105719.46,22253,12.88,73764.0,-2.65,-33.27,-33.61,0,*57
1491105720.7,22254,12.88,73768.3,-2.65,-33.31,-33.67,0,*51
1491105721.93,22255,12.88,73768.8,-2.65,-33.43,-33.67,0,*55
1491105723.16,22256,12.88,73766.0,-2.65,-33.21,-33.49,0,*5E
1491105724.37,22257,12.88,73770.5,-2.65,-33.03,-33.37,0,*56
1491105725.61,22258,12.88,73756.5,-2.65,-32.91,-33.27,0,*52
1491105726.81,22259,12.88,73760.0,-2.65,-32.91,-33.03,0,*55
1491105728.01,22260,12.88,73758.3,-2.65,-33.03,-33.21,0,*55
1491105729.28,22261,12.88,73758.8,-2.63,-32.75,-32.91,0,*58
1491105730.57,22262,12.88,73760.0,-2.63,-32.85,-33.09,0,*54
1491105731.8,22263,12.88,73754.5,-2.63,-32.91,-33.37,0,*5D
1491105733.03,22264,12.88,73748.5,-2.63,-32.91,-33.21,0,*5D
1491105734.32,22265,12.88,73750.8,-2.63,-32.85,-33.09,0,*53
1491105735.55,22266,12.88,73748.3,-2.61,-32.79,-33.03,0,*5B
1491105736.81,22267,12.88,73748.3,-2.63,-33.21,-33.49,0,*5A
1491105738.1,22268,12.88,73746.5,-2.63,-33.09,-33.49,0,*5F
1491105739.33,22269,12.88,73748.0,-2.61,-33.15,-33.43,0,*5B
1491105740.59,22270,12.88,73748.8,-2.63,-33.49,-33.67,0,*5E
1491105741.87,22271,12.88,73748.8,-2.63,-33.43,-33.61,0,*53
1491105743.13,22272,12.88,73752.0,-2.61,-33.43,-33.61,0,*52
1491105744.38,22273,12.88,73750.0,-2.63,-33.49,-33.83,0,*57
1491105745.67,22274,12.88,73754.8,-2.63,-33.49,-33.77,0,*5B
1491105746.96,22275,12.88,73754.0,-2.63,-33.49,-33.77,0,*5A
1491105748.22,22276,12.88,73754.5,-2.63,-33.43,-33.67,0,*52
1491105749.48,22277,12.88,73754.0,-2.63,-33.43,-33.67,0,*53
1491105750.73,22278,12.88,73754.0,-2.63,-33.43,-33.83,0,*56
1491105751.99,22279,12.88,73758.5,-2.63,-33.37,-33.61,0,*58
1491105753.25,22280,12.88,73756.5,-2.63,-33.37,-33.61,0,*5E
1491105754.48,22281,12.88,73756.0,-2.63,-33.21,-33.37,0,*5B
1491105755.75,22282,12.88,73760.3,-2.63,-33.21,-33.49,0,*51
1491105757.03,22283,12.88,73756.5,-2.63,-33.27,-33.49,0,*56
1491105758.29,22284,12.88,73756.5,-2.63,-33.03,-33.27,0,*5F
1491105759.52,22285,12.88,73754.0,-2.63,-33.03,-33.21,0,*58
1491105760.75,22286,12.88,73756.5,-2.63,-32.91,-33.21,0,*51
1491105762.01,22287,12.88,73756.3,-2.61,-32.85,-32.97,0,*5B
1491105763.28,22288,12.88,73756.0,-2.63,-32.57,-32.75,0,*55
1491105764.54,22289,12.88,73758.5,-2.63,-32.51,-32.75,0,*52
1491105765.8,22290,12.88,73762.5,-2.61,-32.63,-32.79,0,*55
1491105767.04,22291,12.88,73760.3,-2.61,-32.51,-32.79,0,*55
1491105768.27,22292,12.88,73760.8,-2.61,-32.51,-32.85,0,*55
1491105769.51,22293,12.88,73758.8,-2.61,-32.79,-33.03,0,*51
1491105770.74,22294,12.88,73752.5,-2.61,-32.97,-33.21,0,*56
1491105771.97,22295,12.88,73752.5,-2.61,-33.03,-33.43,0,*5F
1491105773.21,22296,12.88,73752.8,-2.61,-33.03,-33.43,0,*5C
1491105774.44,22297,12.88,73750.8,-2.61,-32.97,-33.21,0,*55
1491105775.67,22298,12.88,73754.0,-2.61,-33.03,-33.31,0,*57
1491105776.94,22299,12.88,73758.5,-2.63,-33.09,-33.37,0,*58
1491105778.2,22300,12.88,73760.3,-2.63,-32.91,-33.27,0,*58
1491105779.43,22301,12.88,73760.3,-2.63,-33.03,-33.37,0,*52
1491105780.67,22302,12.88,73762.3,-2.61,-32.85,-33.03,0,*5B
1491105781.95,22303,12.88,73760.0,-2.63,-32.85,-33.09,0,*52
1491105783.19,22304,12.88,73762.8,-2.61,-33.03,-33.31,0,*53
1491105784.45,22305,12.88,73756.0,-2.63,-33.03,-33.27,0,*57
1491105785.69,22306,12.88,73758.0,-2.61,-32.69,-32.97,0,*51
1491105786.92,22307,12.88,73756.8,-2.61,-32.63,-32.69,0,*5B
1491105788.16,22308,12.88,73758.8,-2.61,-32.51,-32.79,0,*54
1491105789.42,22309,12.88,73758.3,-2.63,-32.85,-33.03,0,*52
1491105790.65,22310,12.88,73758.5,-2.63,-32.91,-33.21,0,*5F
1491105791.91,22311,12.88,73760.8,-2.63,-33.03,-33.49,0,*5A
1491105793.17,22312,12.88,73762.5,-2.61,-32.85,-33.31,0,*5B
1491105794.4,22313,12.88,73762.8,-2.61,-33.03,-33.43,0,*50
1491105795.63,22314,12.88,73760.5,-2.61,-32.97,-33.15,0,*58
1491105796.84,22315,12.88,73760.3,-2.61,-33.21,-33.55,0,*51
1491105798.07,22316,12.88,73764.5,-2.61,-33.03,-33.31,0,*50
1491105799.33,22317,12.88,73760.3,-2.61,-32.97,-33.31,0,*5D
1491105800.59,22318,12.88,73758.0,-2.63,-33.03,-33.27,0,*5B
1491105801.85,22319,12.88,73756.5,-2.63,-33.09,-33.37,0,*51
1491105803.11,22320,12.88,73758.8,-2.63,-33.21,-33.49,0,*58
1491105804.31,22321,12.88,73760.0,-2.61,-33.15,-33.55,0,*51
1491105805.57,22322,12.88,73762.5,-2.61,-32.97,-33.43,0,*5E
1491105806.81,22323,12.88,73766.3,-2.63,-32.91,-33.37,0,*58
1491105808.07,22324,12.88,73764.0,-2.61,-32.85,-33.31,0,*5E
1491105809.32,22325,12.88,73762.5,-2.61,-32.97,-33.31,0,*5C
1491105810.53,22326,12.88,73766.5,-2.61,-33.15,-33.55,0,*56
1491105811.81,22327,12.88,73766.5,-2.63,-33.09,-33.61,0,*5F
1491105813.06,22328,12.88,73762.3,-2.63,-33.21,-33.61,0,*5A
1491105814.29,22329,12.88,73760.0,-2.61,-32.85,-33.15,0,*55
1491105815.52,22330,12.88,73762.5,-2.61,-32.97,-33.15,0,*5E
1491105816.81,22331,12.88,73764.5,-2.63,-33.09,-33.49,0,*52
1491105818.03,22332,12.88,73764.8,-2.61,-33.21,-33.61,0,*53
1491105819.29,22333,12.88,73760.3,-2.63,-33.21,-33.49,0,*5A
1491105820.55,22334,12.88,73762.0,-2.63,-33.21,-33.61,0,*57
1491105821.79,22335,12.88,73764.3,-2.63,-33.37,-33.67,0,*57
1491105823.02,22336,12.88,73764.5,-2.63,-32.91,-33.37,0,*5C
1491105824.26,22337,12.88,73758.3,-2.61,-33.03,-33.43,0,*56
1491105825.5,22338,12.88,73762.8,-2.61,-33.03,-33.43,0,*59
1491105826.75,22339,12.88,73766.5,-2.61,-33.31,-33.61,0,*59
1491105827.95,22340,12.88,73766.3,-2.61,-33.21,-33.55,0,*51
1491105829.2,22341,12.88,73762.8,-2.63,-33.37,-33.67,0,*54
1491105830.42,22342,12.88,73766.3,-2.61,-33.21,-33.61,0,*54
1491105831.65,22343,12.88,73766.3,-2.61,-33.31,-33.55,0,*53
1491105832.91,22344,12.88,73764.5,-2.63,-33.21,-33.61,0,*50
1491105834.15,22345,12.88,73760.3,-2.63,-33.21,-33.37,0,*52
1491105835.4,22346,12.88,73764.5,-2.61,-33.43,-33.61,0,*54
1491105836.68,22347,12.88,73762.0,-2.63,-33.49,-33.77,0,*5A
1491105837.96,22348,12.88,73760.8,-2.63,-33.27,-33.61,0,*5A
1491105839.23,22349,12.88,73762.3,-2.61,-33.09,-33.43,0,*55
1491105840.46,22350,12.88,73756.5,-2.61,-33.21,-33.43,0,*57
1491105841.72,22351,12.88,73754.8,-2.63,-33.37,-33.61,0,*53
1491105843.0,22352,12.88,73758.0,-2.63,-33.27,-33.61,0,*51
1491105844.26,22353,12.88,73756.0,-2.61,-33.27,-33.43,0,*52
1491105845.52,22354,12.88,73752.8,-2.63,-33.21,-33.49,0,*5B
1491105846.76,22355,12.88,73754.3,-2.61,-33.15,-33.43,0,*55
1491105848.04,22356,12.88,73752.3,-2.63,-33.27,-33.49,0,*5F
1491105849.3,22357,12.88,73752.8,-2.61,-33.09,-33.31,0,*5F
1491105850.53,22358,12.88,73752.8,-2.61,-33.15,-33.43,0,*58
1491105851.76,22359,12.88,73754.3,-2.61,-33.31,-33.55,0,*58
1491105853.02,22360,12.88,73758.0,-2.63,-33.43,-33.67,0,*54
1491105854.27,22361,12.88,73758.0,-2.61,-33.61,-33.77,0,*56
1491105855.53,22362,12.88,73756.8,-2.61,-33.61,-33.89,0,*54
1491105856.78,22363,12.88,73756.3,-2.63,-33.43,-33.83,0,*5D
1491105858.05,22364,12.88,73756.5,-2.63,-33.49,-33.67,0,*5A
1491105859.31,22365,12.88,73758.3,-2.63,-33.49,-33.83,0,*51
1491105860.54,22366,12.88,73754.8,-2.61,-33.37,-33.77,0,*52
1491105861.8,22367,12.88,73756.3,-2.63,-33.37,-33.77,0,*51
1491105863.04,22368,12.88,73750.8,-2.65,-33.43,-33.67,0,*5A
1491105864.32,22369,12.88,73750.5,-2.63,-33.43,-33.77,0,*5C
1491105865.57,22370,12.88,73752.5,-2.63,-33.21,-33.61,0,*57
1491105866.83,22371,12.88,73754.0,-2.63,-33.27,-33.67,0,*56
1491105868.11,22372,12.88,73756.0,-2.63,-33.31,-33.61,0,*54
1491105869.39,22373,12.88,73752.3,-2.63,-33.27,-33.61,0,*52
1491105870.63,22374,12.88,73752.3,-2.63,-33.37,-33.67,0,*52
1491105871.89,22375,12.88,73746.0,-2.63,-33.21,-33.49,0,*58
1491105873.12,22376,12.88,73744.5,-2.63,-32.91,-33.21,0,*5F
1491105874.38,22377,12.88,73746.0,-2.61,-32.97,-33.31,0,*5B
1491105875.64,22378,12.88,73750.3,-2.63,-32.91,-33.27,0,*57
1491105876.84,22379,12.88,73746.0,-2.61,-33.03,-33.21,0,*58
1491105878.13,22380,12.88,73748.3,-2.63,-33.09,-33.49,0,*58
1491105879.39,22381,12.88,73748.5,-2.63,-33.43,-33.67,0,*5B
1491105880.68,22382,12.88,73748.0,-2.63,-33.49,-34.01,0,*55
1491105881.93,22383,12.88,73748.3,-2.63,-33.77,-33.95,0,*53
1491105883.22,22384,12.88,73754.8,-2.63,-33.43,-33.77,0,*5F
1491105884.5,22385,12.88,73758.5,-2.63,-33.49,-33.77,0,*54
1491105885.78,22386,12.88,73760.5,-2.63,-33.27,-33.61,0,*58
1491105887.04,22387,12.88,73766.5,-2.63,-33.21,-33.49,0,*55
1491105888.32,22388,12.88,73764.0,-2.63,-33.27,-33.49,0,*5C
1491105889.58,22389,12.88,73764.8,-2.63,-33.43,-33.67,0,*53
1491105890.81,22390,12.88,73766.5,-2.63,-33.03,-33.21,0,*5D
1491105892.05,22391,12.88,73758.0,-2.63,-32.91,-33.03,0,*56
1491105893.28,22392,12.88,73758.5,-2.63,-33.03,-33.21,0,*5F
1491105894.57,22393,12.88,73758.0,-2.63,-33.09,-33.27,0,*52
1491105895.83,22394,12.88,73752.5,-2.63,-33.21,-33.49,0,*57
1491105897.09,22395,12.88,73752.0,-2.63,-33.27,-33.37,0,*59
1491105898.35,22396,12.88,73754.5,-2.63,-33.37,-33.49,0,*52
1491105899.62,22397,12.88,73754.3,-2.63,-33.09,-33.37,0,*57
1491105900.85,22398,12.88,73756.8,-2.65,-33.27,-33.37,0,*52
1491105902.11,22399,12.88,73754.0,-2.63,-33.37,-33.49,0,*5D
1491105903.35,22400,12.88,73756.5,-2.63,-33.03,-33.21,0,*53
1491105904.55,22401,12.88,73758.3,-2.65,-33.03,-33.03,0,*54
1491105905.81,22402,12.88,73756.3,-2.63,-33.03,-33.09,0,*5B
1491105907.07,22403,12.88,73764.8,-2.63,-33.03,-33.09,0,*5A
1491105908.36,22404,12.88,73766.8,-2.63,-33.09,-33.27,0,*5B
1491105909.64,22405,12.88,73764.3,-2.63,-33.43,-33.49,0,*5C
1491105910.9,22406,12.88,73764.0,-2.63,-33.61,-33.67,0,*53
1491105912.16,22407,12.88,73772.3,-2.63,-33.61,-33.67,0,*52
1491105913.41,22408,12.88,73766.3,-2.65,-33.43,-33.61,0,*5D
1491105914.67,22409,12.88,73762.5,-2.63,-33.09,-33.21,0,*50
1491105915.91,22410,12.88,73758.5,-2.63,-33.03,-33.21,0,*52
1491105917.14,22411,12.88,73752.8,-2.63,-33.03,-33.21,0,*53
1491105918.43,22412,12.88,73754.5,-2.63,-33.09,-33.27,0,*5C
1491105919.69,22413,12.88,73754.3,-2.63,-33.37,-33.49,0,*58
1491105920.93,22414,12.88,73756.5,-2.63,-33.21,-33.37,0,*51
1491105922.19,22415,12.88,73762.3,-2.65,-33.09,-33.09,0,*51
1491105923.42,22416,12.88,73762.5,-2.65,-33.37,-33.49,0,*5B
1491105924.66,22417,12.88,73756.8,-2.65,-33.09,-33.21,0,*59
1491105925.86,22418,12.88,73760.3,-2.65,-33.03,-33.21,0,*5C
1491105927.15,22419,12.88,73754.8,-2.63,-33.27,-33.27,0,*5B
1491105928.41,22420,12.88,73760.0,-2.63,-33.37,-33.49,0,*58
1491105929.67,22421,12.88,73760.5,-2.63,-33.27,-33.37,0,*51
1491105930.9,22422,12.88,73752.5,-2.65,-33.21,-33.49,0,*5B
1491105932.14,22423,12.88,73756.8,-2.65,-33.37,-33.61,0,*57
1491105933.37,22424,12.88,73752.8,-2.65,-33.21,-33.27,0,*55
1491105934.58,22425,12.88,73758.5,-2.65,-33.21,-33.37,0,*55
1491105935.87,22426,12.88,73758.0,-2.67,-33.49,-33.73,0,*5A
1491105937.12,22427,12.88,73756.0,-2.63,-33.21,-33.61,0,*52
1491105938.38,22428,12.88,73756.5,-2.63,-33.37,-33.61,0,*5A
1491105939.6,22429,12.88,73760.3,-2.65,-33.37,-33.67,0,*5B
1491105940.83,22430,12.88,73756.5,-2.65,-33.43,-33.67,0,*50
1491105942.09,22431,12.88,73762.8,-2.65,-33.49,-33.77,0,*5A
1491105943.34,22432,12.88,73758.0,-2.67,-33.55,-33.73,0,*52
1491105944.6,22433,12.88,73758.3,-2.65,-33.43,-33.61,0,*55
1491105945.83,22434,12.88,73754.8,-2.65,-33.43,-33.67,0,*54
1491105947.06,22435,12.88,73752.0,-2.65,-33.27,-33.37,0,*52
1491105948.35,22436,12.88,73756.0,-2.67,-33.09,-33.27,0,*5E
1491105949.61,22437,12.88,73760.0,-2.65,-33.09,-33.27,0,*5D
1491105950.84,22438,12.88,73762.0,-2.61,-33.15,-33.31,0,*5C
1491105952.08,22439,12.88,73760.0,-2.63,-33.21,-33.37,0,*5E
1491105953.29,22440,12.88,73754.5,-2.61,-33.03,-33.21,0,*55
1491105954.58,22441,12.88,73756.8,-2.63,-32.75,-32.85,0,*59
1491105955.84,22442,12.88,73764.8,-2.61,-32.79,-32.85,0,*54
1491105957.1,22443,12.88,73762.5,-2.63,-32.85,-33.03,0,*5B
1491105958.4,22444,12.88,73764.5,-2.63,-32.75,-32.85,0,*5C
1491105959.69,22445,12.88,73762.3,-2.63,-32.75,-32.85,0,*5D
1491105960.9,22446,12.88,73762.0,-2.61,-32.51,-32.69,0,*58
1491105962.16,22447,12.88,73758.5,-2.61,-32.79,-32.85,0,*51
1491105963.4,22448,12.88,73756.0,-2.61,-33.03,-33.43,0,*59
1491105964.63,22449,12.88,73758.0,-2.61,-33.15,-33.43,0,*5F
1491105965.87,22450,12.88,73758.0,-2.61,-33.37,-33.43,0,*57
1491105967.15,22451,12.88,73754.0,-2.63,-33.43,-33.61,0,*57
1491105968.4,22452,12.88,73758.8,-2.61,-33.43,-33.61,0,*56
1491105969.66,22453,12.88,73752.8,-2.61,-33.43,-33.77,0,*50
1491105970.89,22454,12.88,73754.8,-2.61,-33.43,-33.55,0,*57
1491105972.14,22455,12.88,73752.0,-2.61,-33.43,-33.77,0,*56
1491105973.38,22456,12.88,73754.0,-2.63,-33.67,-33.83,0,*5A
1491105974.59,22457,12.88,73752.3,-2.61,-33.37,-33.55,0,*57
1491105975.82,22458,12.88,73752.3,-2.61,-33.31,-33.55,0,*5E
1491105977.05,22459,12.88,73750.8,-2.61,-32.85,-33.15,0,*55
1491105978.26,22460,12.88,73744.0,-2.61,-33.03,-33.21,0,*57
1491105979.52,22461,12.88,73744.8,-2.59,-33.21,-33.43,0,*59
1491105980.75,22462,12.88,73746.0,-2.61,-33.15,-33.43,0,*56
1491105981.96,22463,12.88,73744.8,-2.61,-33.37,-33.55,0,*50
1491105983.2,22464,12.88,73744.3,-2.61,-33.37,-33.73,0,*53
1491105984.43,22465,12.88,73746.3,-2.61,-33.37,-33.61,0,*51
1491105985.67,22466,12.88,73744.3,-2.63,-33.37,-33.67,0,*56
1491105986.95,22467,12.88,73750.0,-2.63,-33.27,-33.61,0,*50
1491105988.15,22468,12.88,73746.3,-2.61,-33.15,-33.55,0,*5B
1491105989.38,22469,12.88,73750.5,-2.61,-33.15,-33.43,0,*5D
1491105990.64,22470,12.88,73748.3,-2.63,-33.03,-33.49,0,*5A
1491105991.9,22471,12.88,73744.5,-2.63,-33.21,-33.49,0,*5B
1491105993.14,22472,12.88,73750.0,-2.63,-33.37,-33.67,0,*53
1491105994.42,22473,12.88,73750.3,-2.63,-33.43,-33.77,0,*50
1491105995.68,22474,12.88,73752.3,-2.63,-33.49,-33.83,0,*56
1491105996.94,22475,12.88,73754.3,-2.63,-33.37,-33.77,0,*55
1491105998.2,22476,12.88,73754.0,-2.63,-33.49,-33.83,0,*54
1491105999.44,22477,12.88,73754.8,-2.63,-33.37,-33.67,0,*56
1491106000.7,22478,12.88,73754.5,-2.63,-33.49,-33.83,0,*5A
1491106001.91,22479,12.88,73754.0,-2.65,-33.67,-33.95,0,*56
1491106003.16,22480,12.88,73754.5,-2.65,-33.61,-34.01,0,*5C
1491106004.43,22481,12.88,73754.8,-2.67,-33.67,-34.01,0,*59
1491106005.66,22482,12.88,73754.3,-2.65,-33.67,-34.01,0,*58
1491106006.87,22483,12.88,73752.5,-2.65,-33.67,-33.95,0,*53
1491106008.1,22484,12.88,73754.0,-2.67,-33.67,-34.07,0,*5A
1491106009.31,22485,12.88,73754.0,-2.65,-33.67,-34.13,0,*5C
1491106010.54,22486,12.88,73752.3,-2.67,-33.83,-34.07,0,*52
1491106011.81,22487,12.88,73754.3,-2.65,-33.73,-34.01,0,*58
1491106013.04,22488,12.88,73752.3,-2.67,-33.83,-34.07,0,*5C
1491106014.3,22489,12.88,73752.5,-2.67,-33.49,-33.67,0,*5A
1491106015.56,22490,12.88,73752.0,-2.67,-33.49,-33.83,0,*58
1491106016.82,22491,12.88,73752.3,-2.67,-33.55,-33.89,0,*5E
1491106018.11,22492,12.88,73754.8,-2.67,-33.49,-33.73,0,*55
1491106019.37,22493,12.88,73752.8,-2.67,-33.49,-33.83,0,*5B
1491106020.57,22494,12.88,73752.0,-2.69,-33.55,-33.83,0,*5F
1491106021.79,22495,12.88,73754.3,-2.69,-33.55,-33.67,0,*54
1491106023.02,22496,12.81,73752.0,-2.73,-33.31,-33.67,0,*5E
1491106024.25,22497,12.88,73754.8,-2.73,-33.21,-33.61,0,*58
1491106025.51,22498,12.88,73758.0,-2.73,-33.31,-33.49,0,*5C
1491106026.74,22499,12.88,73758.0,-2.69,-33.27,-33.55,0,*5C
1491106027.98,22500,12.88,73754.8,-2.69,-33.15,-33.43,0,*5B
1491106029.22,22501,12.88,73750.3,-2.69,-33.27,-33.55,0,*5C
1491106030.46,22502,12.81,73744.5,-2.73,-33.21,-33.43,0,*55
1491106031.72,22503,12.88,73748.8,-2.69,-32.97,-33.27,0,*51
1491106032.94,22504,12.88,73748.5,-2.69,-33.03,-33.37,0,*5B
1491106034.21,22505,12.88,73740.3,-2.69,-33.09,-33.43,0,*53
1491106035.44,22506,12.88,73732.5,-2.69,-32.97,-33.15,0,*55
1491106036.71,22507,12.81,73728.8,-2.69,-32.79,-32.97,0,*5F
1491106037.92,22508,12.88,73740.0,-2.73,-33.03,-33.37,0,*5C
1491106039.18,22509,12.88,73734.0,-2.69,-32.97,-33.31,0,*5C
1491106040.41,22510,12.88,73732.5,-2.69,-32.91,-33.09,0,*59
1491106041.66,22511,12.88,73732.5,-2.69,-32.79,-33.15,0,*53
1491106042.92,22512,12.88,73732.0,-2.67,-32.91,-33.27,0,*59
1491106044.17,22513,12.88,73734.3,-2.67,-32.91,-33.31,0,*5F
1491106045.43,22514,12.88,73736.8,-2.65,-33.09,-33.49,0,*55
1491106046.71,22515,12.88,73736.5,-2.67,-32.97,-33.31,0,*5F
1491106047.97,22516,12.88,73740.0,-2.67,-32.79,-33.15,0,*5A
1491106049.23,22517,12.88,73738.3,-2.65,-32.85,-33.09,0,*57
1491106050.49,22518,12.88,73744.8,-2.67,-32.91,-33.27,0,*53
1491106051.78,22519,12.81,73738.0,-2.67,-32.97,-33.27,0,*54
1491106053.04,22520,12.88,73742.0,-2.67,-33.15,-33.43,0,*57
1491106054.29,22521,12.88,73740.3,-2.67,-32.97,-33.21,0,*59
1491106055.57,22522,12.88,73744.5,-2.67,-32.97,-33.31,0,*5B
1491106056.83,22523,12.88,73746.8,-2.67,-32.97,-33.15,0,*5C
1491106058.11,22524,12.88,73748.0,-2.67,-32.97,-33.31,0,*5D
1491106059.37,22525,12.88,73750.3,-2.65,-33.09,-33.49,0,*57
1491106060.66,22526,12.88,73754.0,-2.67,-33.09,-33.43,0,*5C
1491106061.91,22527,12.88,73754.5,-2.65,-33.27,-33.49,0,*59
1491106063.17,22528,12.81,73750.5,-2.65,-33.27,-33.49,0,*56
1491106064.43,22529,12.88,73754.0,-2.67,-33.27,-33.55,0,*58
1491106065.69,22530,12.88,73754.3,-2.67,-33.43,-33.67,0,*53
1491106066.94,22531,12.88,73752.5,-2.67,-33.27,-33.55,0,*51
1491106068.23,22532,12.88,73752.8,-2.67,-33.09,-33.43,0,*59
1491106069.52,22533,12.88,73754.3,-2.67,-33.09,-33.31,0,*5D
1491106070.8,22534,12.88,73752.5,-2.67,-33.27,-33.43,0,*53
1491106072.04,22535,12.88,73752.3,-2.69,-33.15,-33.43,0,*5D
1491106073.3,22536,12.88,73754.5,-2.69,-32.97,-33.31,0,*50
1491106074.54,22537,12.81,73750.8,-2.69,-33.15,-33.31,0,*5A
1491106075.81,22538,12.88,73754.0,-2.69,-33.27,-33.43,0,*51
1491106077.07,22539,12.81,73752.0,-2.67,-33.15,-33.27,0,*5D
1491106078.34,22540,12.88,73752.8,-2.69,-33.27,-33.43,0,*5E
1491106079.59,22541,12.88,73752.5,-2.67,-33.43,-33.55,0,*54
1491106080.85,22542,12.81,73752.0,-2.67,-33.31,-33.55,0,*52
1491106082.14,22543,12.88,73752.5,-2.67,-33.31,-33.43,0,*54
1491106083.41,22544,12.88,73754.3,-2.69,-33.43,-33.43,0,*58
1491106084.61,22545,12.88,73752.5,-2.69,-33.55,-33.55,0,*59
1491106085.88,22546,12.88,73758.3,-2.67,-33.49,-33.67,0,*58
1491106087.12,22547,12.88,73758.8,-2.69,-33.49,-33.67,0,*57
1491106088.39,22548,12.88,73758.3,-2.69,-33.27,-33.43,0,*56
1491106089.6,22549,12.88,73758.0,-2.69,-33.15,-33.55,0,*51
1491106090.86,22550,12.88,73760.5,-2.69,-33.09,-33.27,0,*51
1491106092.14,22551,12.88,73756.3,-2.69,-33.09,-33.43,0,*52
1491106093.39,22552,12.88,73756.3,-2.67,-33.09,-33.15,0,*5C
1491106094.63,22553,12.88,73756.8,-2.69,-33.15,-33.31,0,*58
1491106095.89,22554,12.81,73754.8,-2.67,-33.15,-33.31,0,*51
1491106097.13,22555,12.88,73762.0,-2.69,-33.15,-33.43,0,*5B
1491106098.39,22556,12.81,73758.8,-2.69,-32.97,-33.27,0,*51
1491106099.63,22557,12.88,73756.3,-2.69,-33.27,-33.55,0,*5F